Location: Biberach+an+der+Riss
(48.0937°N, 9.7888°E)
Time: 23:23:49
(UTC+02:00)

ELECTRON R/B - Visible Passes

Search period start: 24 May 2018 00:00
Search period end: 03 June 2018 00:00
Orbit: 285 x 479 km, 82.9° (Epoch: 23 May)

Date Brightness Start Highest point End Pass type
(mag) Time Alt. Az. Time Alt. Az. Time Alt. Az.
24 May 4.4 21:46:28 10° N 21:48:55 78° W 21:51:21 10° S visible
25 May 7.3 22:23:29 10° NW 22:24:55 14° W 22:26:21 10° SW visible
27 May 7.3 22:02:28 10° NW 22:04:11 17° W 22:05:55 10° SW visible
